Regional Weather Roundup
Issued by NWS

Home | Current Version | Previous Version | Graphics & Text | Print | Product List | Glossary On
Versions: 1 2 3 4 5 6 7 8 9 10 11 12 13 14 15 16 17 18 19 20 21 22 23 24 25 26 27 28 29 30 31 32 33 34 35 36 37 38 39 40 41 42 43 44 45 46 47 48 49 50
088
ASUS45 KSLC 290110
RWRUT

UTAH REGIONAL WEATHER ROUNDUP
NATIONAL WEATHER SERVICE SALT LAKE CITY UT
700 PM MDT SAT MAY 28 2016

UTZ001>011-023>025-290200-

NORTHERN UTAH

CITY           SKY/WX    TMP DP  RH WIND       PRES   REMARKS
BRIGHAM CITY     N/A     71  30  22 CALM      30.02S
HILL AFB       SUNNY     69  35  28 N6        30.04R
LOGAN          SUNNY     68  38  33 N7        30.03S
OGDEN          SUNNY     70  34  26 N6        30.02S
PROVO AIRPORT  MOSUNNY   70  46  43 NW12      30.01R
SALT LAKE CITY MOSUNNY   74  37  26 N9        30.00S
VERNAL         CLOUDY    66  39  37 N9        30.06R
WENDOVER       PTSUNNY   72  36  26 S15       30.01S
HEBER CITY     SUNNY     68  32  26 E3        30.04S
WEST JORDAN    SUNNY     70  39  32 NW12      30.03R

$$

UTZ012>022-026-027-290200-

SOUTHERN/CENTRAL UTAH

CITY           SKY/WX    TMP DP  RH WIND       PRES   REMARKS
BLANDING       MOSUNNY   71  27  19 CALM      30.13S
BRYCE CANYON   PTSUNNY   62  26  25 VRB7      30.15S
CEDAR CITY     PTSUNNY   73  24  16 W10       29.99S
DELTA          CLOUDY    68  34  28 NW12G23   30.02S
HANKSVILLE     PTSUNNY   73  32  21 N5        30.02R
MILFORD        LGT RAIN  69  37  30 N20G32    30.00R
MOAB/CYNLANDS  PTSUNNY   74  34  23 NW17      29.99R
PRICE          PTSUNNY   64  33  31 E12       30.09R
ST GEORGE      CLEAR     86  30  13 W7        29.84F
KANAB          PTSUNNY   77  30  18 E9        29.99S

$$

REGIONAL REPORTS     COLORADO/ARIZONA

CITY           SKY/WX    TMP DP  RH WIND       PRES   REMARKS
CRAIG, CO      CLOUDY    62  35  36 SW12      30.10R
GRAND JUNCTION CLOUDY    74  29  19 CALM      29.99S
RIFLE          CLOUDY    66  35  31 CALM      30.08R
MONTROSE       CLOUDY    70  27  20 SW7       30.07R
CORTEZ         SUNNY     73  20  13 VRB6      30.06S
PAGE, AZ       MOSUNNY   83  27  13 N9        29.92S
GRAND CANYON   CLOUDY    68  28  22 SE12G23   30.09S
KINGMAN        SUNNY     85  26  11 W17       29.86F
FLAGSTAFF      MOSUNNY   67  21  17 VRB7      30.09S

$$

REGIONAL REPORTS    NEVADA/IDAHO/WYOMING

CITY           SKY/WX    TMP DP  RH WIND       PRES   REMARKS
LAS VEGAS, NV  PTSUNNY   91  23   8 S8        29.74S
ELY            PTSUNNY   63  35  35 NE10      30.06S
ELKO           PTSUNNY   70  32  24 W5        30.00S
POCATELLO, ID  SUNNY     65  27  23 W14       30.06S
BURLEY         MOSUNNY   65  30  27 W7        30.03S
EVANSTON, WY   SUNNY     60  28  29 W18       30.13S
ROCK SPRINGS   CLOUDY    57  38  48 SW14      30.11R
KEMMERER         N/A     57  30  35 W17       30.15R

$$




USA.gov is the U.S. government's official web portal to all federal, state and local government web resources and services.